status,avgMeasuredTime,avgSpeed,extID,medianMeasuredTime,TIMESTAMP,vehicleCount,_id,REPORT_ID
OK,111,36,1037,111,2014-08-01T08:10:00,1,20747914,201961
OK,111,36,1037,111,2014-08-01T08:15:00,1,20748363,201961
OK,111,36,1037,111,2014-08-01T08:20:00,0,20748812,201961
OK,120,34,1037,120,2014-08-01T08:25:00,1,20749261,201961
OK,102,40,1037,102,2014-08-01T08:40:00,1,20750608,201961
OK,89,46,1037,89,2014-08-01T08:50:00,3,20751506,201961
OK,128,32,1037,128,2014-08-01T09:00:00,0,20752404,201961
OK,99,41,1037,99,2014-08-01T09:10:00,4,20753302,201961
OK,97,42,1037,97,2014-08-01T09:20:00,1,20754200,201961
OK,91,45,1037,91,2014-08-01T09:30:00,1,20755098,201961
OK,91,45,1037,91,2014-08-01T09:40:00,0,20755996,201961
OK,112,36,1037,112,2014-08-01T09:50:00,1,20756894,201961
OK,103,39,1037,103,2014-08-01T10:00:00,2,20757792,201961
OK,85,48,1037,85,2014-08-01T10:20:00,3,20759588,201961
OK,72,56,1037,72,2014-08-01T10:30:00,0,20760486,201961
OK,72,56,1037,72,2014-08-01T10:40:00,0,20761384,201961
OK,106,38,1037,106,2014-08-01T11:20:00,2,20764975,201961
OK,113,36,1037,113,2014-08-01T11:30:00,3,20765873,201961
OK,77,53,1037,77,2014-08-01T11:40:00,1,20766771,201961
OK,96,42,1037,96,2014-08-01T11:50:00,3,20767669,201961
OK,106,38,1037,106,2014-08-01T12:00:00,2,20768567,201961
OK,65,63,1037,65,2014-08-01T12:10:00,0,20769465,201961
OK,99,41,1037,99,2014-08-01T12:20:00,2,20770363,201961
OK,149,27,1037,149,2014-08-01T12:30:00,1,20771261,201961
OK,108,37,1037,108,2014-08-01T12:40:00,2,20772159,201961
OK,145,28,1037,145,2014-08-01T12:50:00,3,20773057,201961
OK,113,36,1037,113,2014-08-01T13:00:00,0,20773955,201961
OK,115,35,1037,115,2014-08-01T13:10:00,1,20774853,201961
OK,118,34,1037,118,2014-08-01T13:20:00,1,20775751,201961
OK,107,38,1037,107,2014-08-01T13:30:00,2,20776649,201961
OK,108,37,1037,108,2014-08-01T13:40:00,0,20777547,201961
OK,113,36,1037,113,2014-08-01T13:50:00,1,20778445,201961
OK,113,36,1037,113,2014-08-01T14:05:00,0,20779792,201961
OK,113,36,1037,113,2014-08-01T14:10:00,0,20780241,201961
OK,113,36,1037,113,2014-08-01T14:15:00,0,20780690,201961
OK,106,38,1037,106,2014-08-01T14:20:00,2,20781139,201961
OK,115,35,1037,115,2014-08-01T14:30:00,1,20782037,201961
OK,115,35,1037,115,2014-08-01T14:35:00,1,20782486,201961
OK,118,34,1037,118,2014-08-01T14:40:00,2,20782935,201961
OK,114,35,1037,114,2014-08-01T14:45:00,3,20783384,201961
OK,96,42,1037,96,2014-08-01T14:50:00,1,20783833,201961
OK,60,68,1037,60,2014-08-01T15:00:00,1,20784731,201961
OK,60,68,1037,60,2014-08-01T15:05:00,1,20785180,201961
OK,60,68,1037,60,2014-08-01T15:10:00,0,20785629,201961
OK,60,68,1037,60,2014-08-01T15:15:00,0,20786078,201961
OK,54,75,1037,54,2014-08-01T15:20:00,1,20786527,201961
OK,54,75,1037,54,2014-08-01T15:25:00,1,20786976,201961
OK,54,75,1037,54,2014-08-01T15:30:00,0,20787425,201961
OK,54,75,1037,54,2014-08-01T15:35:00,0,20787874,201961
OK,54,75,1037,54,2014-08-01T15:40:00,0,20788323,201961
OK,54,75,1037,54,2014-08-01T15:45:00,0,20788772,201961
OK,101,40,1037,101,2014-08-01T15:50:00,1,20789221,201961
OK,86,47,1037,86,2014-08-01T15:55:00,2,20789670,201961
OK,72,56,1037,72,2014-08-01T16:00:00,1,20790119,201961
OK,103,39,1037,103,2014-08-01T16:05:00,2,20790568,201961
OK,103,39,1037,103,2014-08-01T16:10:00,2,20791017,201961
OK,95,43,1037,95,2014-08-01T16:15:00,0,20791466,201961
OK,95,43,1037,95,2014-08-01T16:20:00,0,20791915,201961
OK,95,43,1037,95,2014-08-01T16:25:00,0,20792364,201961
OK,95,43,1037,95,2014-08-01T16:30:00,0,20792813,201961
OK,111,36,1037,111,2014-08-01T16:35:00,1,20793262,201961
OK,111,36,1037,111,2014-08-01T16:40:00,1,20793711,201961
OK,111,36,1037,111,2014-08-01T16:45:00,0,20794160,201961
OK,111,36,1037,111,2014-08-01T16:50:00,0,20794609,201961
OK,111,36,1037,111,2014-08-01T16:55:00,0,20795058,201961
OK,111,36,1037,111,2014-08-01T17:00:00,0,20795507,201961
OK,111,36,1037,111,2014-08-01T17:05:00,0,20795956,201961
OK,111,36,1037,111,2014-08-01T17:10:00,0,20796405,201961
OK,111,36,1037,111,2014-08-01T17:15:00,0,20796854,201961
OK,111,36,1037,111,2014-08-01T17:20:00,0,20797303,201961
OK,111,36,1037,111,2014-08-01T17:25:00,0,20797752,201961
OK,111,36,1037,111,2014-08-01T17:30:00,0,20798201,201961
OK,111,36,1037,111,2014-08-01T17:35:00,0,20798650,201961
OK,111,36,1037,111,2014-08-01T17:40:00,0,20799099,201961
OK,111,36,1037,111,2014-08-01T17:45:00,0,20799548,201961
OK,111,36,1037,111,2014-08-01T17:50:00,0,20799997,201961
OK,111,36,1037,111,2014-08-01T17:55:00,0,20800446,201961
OK,111,36,1037,111,2014-08-01T18:00:00,0,20800895,201961
OK,79,51,1037,79,2014-08-01T18:05:00,2,20801344,201961
OK,79,51,1037,79,2014-08-01T18:10:00,2,20801793,201961
OK,74,55,1037,74,2014-08-01T18:15:00,0,20802242,201961
OK,74,55,1037,74,2014-08-01T18:20:00,0,20802691,201961
OK,74,55,1037,74,2014-08-01T18:25:00,0,20803140,201961
OK,74,55,1037,74,2014-08-01T18:30:00,0,20803589,201961
OK,74,55,1037,74,2014-08-01T18:35:00,0,20804038,201961
OK,74,55,1037,74,2014-08-01T18:40:00,0,20804487,201961
OK,74,55,1037,74,2014-08-01T18:45:00,0,20804936,201961
OK,74,55,1037,74,2014-08-01T18:50:00,0,20805385,201961
OK,74,55,1037,74,2014-08-01T18:55:00,0,20805834,201961
OK,74,55,1037,74,2014-08-01T19:00:00,0,20806283,201961
OK,103,39,1037,103,2014-08-01T19:05:00,1,20806732,201961
OK,103,39,1037,103,2014-08-01T19:10:00,1,20807181,201961
OK,90,45,1037,90,2014-08-01T19:15:00,1,20807630,201961
OK,90,45,1037,90,2014-08-01T19:20:00,1,20808079,201961
OK,90,45,1037,90,2014-08-01T19:25:00,0,20808528,201961
OK,90,45,1037,90,2014-08-01T19:30:00,0,20808977,201961
OK,84,48,1037,84,2014-08-01T19:35:00,1,20809426,201961
OK,84,48,1037,84,2014-08-01T19:40:00,1,20809875,201961
OK,84,48,1037,84,2014-08-01T19:45:00,0,20810324,201961
OK,84,48,1037,84,2014-08-01T19:50:00,0,20810773,201961
OK,84,48,1037,84,2014-08-01T19:55:00,0,20811222,201961
OK,84,48,1037,84,2014-08-01T22:00:00,0,20816951,201961
OK,100,41,1037,100,2014-08-02T00:00:00,0,20823390,201961
OK,100,41,1037,100,2014-08-02T00:05:00,0,20823839,201961
OK,100,41,1037,100,2014-08-02T00:10:00,0,20824288,201961
OK,100,41,1037,100,2014-08-02T00:15:00,0,20824737,201961
OK,100,41,1037,100,2014-08-02T00:20:00,0,20825186,201961
OK,100,41,1037,100,2014-08-02T00:25:00,0,20825635,201961
OK,100,41,1037,100,2014-08-02T00:30:00,0,20826084,201961
OK,100,41,1037,100,2014-08-02T00:35:00,0,20826533,201961
OK,100,41,1037,100,2014-08-02T00:40:00,0,20826982,201961
OK,100,41,1037,100,2014-08-02T00:45:00,0,20827431,201961
OK,100,41,1037,100,2014-08-02T00:50:00,0,20827880,201961
OK,100,41,1037,100,2014-08-02T00:55:00,0,20828329,201961
OK,100,41,1037,100,2014-08-02T01:00:00,0,20828778,201961
OK,100,41,1037,100,2014-08-02T01:05:00,0,20829227,201961
OK,100,41,1037,100,2014-08-02T01:10:00,0,20829676,201961
OK,100,41,1037,100,2014-08-02T01:15:00,0,20830125,201961
OK,100,41,1037,100,2014-08-02T01:20:00,0,20830574,201961
OK,100,41,1037,100,2014-08-02T01:30:00,0,20831472,201961
OK,100,41,1037,100,2014-08-02T01:35:00,0,20831921,201961
OK,100,41,1037,100,2014-08-02T01:40:00,0,20832370,201961
OK,100,41,1037,100,2014-08-02T01:45:00,0,20832819,201961
OK,100,41,1037,100,2014-08-02T01:50:00,0,20833268,201961
OK,100,41,1037,100,2014-08-02T01:55:00,0,20833717,201961
OK,100,41,1037,100,2014-08-02T02:00:00,0,20834166,201961
OK,100,41,1037,100,2014-08-02T02:05:00,0,20834615,201961
OK,100,41,1037,100,2014-08-02T02:10:00,0,20835064,201961
OK,100,41,1037,100,2014-08-02T02:15:00,0,20835513,201961
OK,100,41,1037,100,2014-08-02T02:20:00,0,20835962,201961
OK,100,41,1037,100,2014-08-02T02:25:00,0,20836411,201961
OK,100,41,1037,100,2014-08-02T02:30:00,0,20836860,201961
OK,100,41,1037,100,2014-08-02T02:35:00,0,20837309,201961
OK,100,41,1037,100,2014-08-02T02:40:00,0,20837758,201961
OK,100,41,1037,100,2014-08-02T02:45:00,0,20838207,201961
OK,100,41,1037,100,2014-08-02T02:50:00,0,20838656,201961
OK,100,41,1037,100,2014-08-02T02:55:00,0,20839105,201961
OK,100,41,1037,100,2014-08-02T03:00:00,0,20839554,201961
OK,100,41,1037,100,2014-08-02T03:05:00,0,20840003,201961
OK,100,41,1037,100,2014-08-02T03:10:00,0,20840452,201961
OK,100,41,1037,100,2014-08-02T03:15:00,0,20840901,201961
OK,100,41,1037,100,2014-08-02T03:20:00,0,20841350,201961
OK,100,41,1037,100,2014-08-02T03:25:00,0,20841799,201961
OK,100,41,1037,100,2014-08-02T03:30:00,0,20842248,201961
OK,100,41,1037,100,2014-08-02T03:35:00,0,20842697,201961
OK,100,41,1037,100,2014-08-02T03:40:00,0,20843146,201961
OK,100,41,1037,100,2014-08-02T03:45:00,0,20843595,201961
OK,100,41,1037,100,2014-08-02T03:50:00,0,20844044,201961
OK,100,41,1037,100,2014-08-02T03:55:00,0,20844493,201961
OK,100,41,1037,100,2014-08-02T06:00:00,0,20851947,201961
OK,100,41,1037,100,2014-08-02T06:05:00,0,20852396,201961
OK,100,41,1037,100,2014-08-02T06:10:00,0,20852845,201961
OK,100,41,1037,100,2014-08-02T06:15:00,0,20853294,201961
OK,100,41,1037,100,2014-08-02T06:20:00,0,20853743,201961
OK,100,41,1037,100,2014-08-02T06:25:00,0,20854192,201961
OK,100,41,1037,100,2014-08-02T06:30:00,0,20854641,201961
OK,100,41,1037,100,2014-08-02T06:35:00,0,20855090,201961
OK,100,41,1037,100,2014-08-02T06:40:00,0,20855539,201961
OK,100,41,1037,100,2014-08-02T06:45:00,0,20855988,201961
OK,100,41,1037,100,2014-08-02T06:50:00,0,20856437,201961
OK,100,41,1037,100,2014-08-02T06:55:00,0,20856886,201961
OK,100,41,1037,100,2014-08-02T07:00:00,0,20857335,201961
OK,100,41,1037,100,2014-08-02T07:05:00,0,20857784,201961
OK,100,41,1037,100,2014-08-02T07:10:00,0,20858233,201961
OK,59,69,1037,59,2014-08-02T07:15:00,1,20858682,201961
OK,100,41,1037,100,2014-08-02T07:20:00,0,20859131,201961
OK,100,41,1037,100,2014-08-02T07:25:00,0,20859580,201961
OK,100,41,1037,100,2014-08-02T07:30:00,0,20860029,201961
OK,100,41,1037,100,2014-08-02T07:35:00,0,20860478,201961
OK,100,41,1037,100,2014-08-02T07:40:00,0,20860927,201961
OK,100,41,1037,100,2014-08-02T07:45:00,0,20861376,201961
OK,100,41,1037,100,2014-08-02T07:50:00,0,20861825,201961
OK,100,41,1037,100,2014-08-02T07:55:00,0,20862274,201961
OK,100,41,1037,100,2014-08-02T08:00:00,0,20862723,201961
OK,100,41,1037,100,2014-08-02T08:05:00,0,20863172,201961
OK,100,41,1037,100,2014-08-02T08:10:00,0,20863621,201961
OK,100,41,1037,100,2014-08-02T08:15:00,0,20864070,201961
OK,100,41,1037,100,2014-08-02T08:20:00,0,20864519,201961
OK,100,41,1037,100,2014-08-02T08:25:00,0,20864968,201961
OK,100,41,1037,100,2014-08-02T08:30:00,0,20865417,201961
OK,100,41,1037,100,2014-08-02T08:35:00,0,20865866,201961
OK,100,41,1037,100,2014-08-02T08:40:00,0,20866315,201961
OK,100,41,1037,100,2014-08-02T08:45:00,0,20866764,201961
OK,100,41,1037,100,2014-08-02T08:50:00,0,20867213,201961
OK,100,41,1037,100,2014-08-02T08:55:00,0,20867662,201961
OK,797,5,1037,797,2014-08-02T09:00:00,2,20868111,201961
OK,797,5,1037,797,2014-08-02T09:05:00,0,20868560,201961
OK,797,5,1037,797,2014-08-02T09:10:00,0,20869009,201961
OK,98,41,1037,98,2014-08-02T09:15:00,1,20869458,201961
OK,98,41,1037,98,2014-08-02T09:20:00,1,20869907,201961
OK,98,41,1037,98,2014-08-02T09:25:00,0,20870356,201961
OK,68,60,1037,68,2014-08-02T09:30:00,2,20870805,201961
OK,68,60,1037,68,2014-08-02T09:35:00,2,20871254,201961
OK,80,51,1037,80,2014-08-02T09:40:00,1,20871703,201961
OK,92,44,1037,92,2014-08-02T09:45:00,2,20872152,201961
OK,95,43,1037,95,2014-08-02T09:50:00,4,20872601,201961
OK,91,45,1037,91,2014-08-02T09:55:00,3,20873050,201961
OK,83,49,1037,83,2014-08-02T10:00:00,0,20873499,201961
OK,101,40,1037,101,2014-08-02T10:05:00,1,20873948,201961
OK,101,40,1037,101,2014-08-02T10:10:00,1,20874397,201961
OK,101,40,1037,101,2014-08-02T10:15:00,0,20874846,201961
OK,101,40,1037,101,2014-08-02T10:20:00,0,20875295,201961
OK,101,40,1037,101,2014-08-02T10:25:00,0,20875744,201961
OK,87,47,1037,87,2014-08-02T10:30:00,3,20876193,201961
OK,87,47,1037,87,2014-08-02T10:35:00,3,20876642,201961
OK,65,63,1037,65,2014-08-02T10:40:00,1,20877091,201961
OK,147,27,1037,147,2014-08-02T10:45:00,1,20877540,201961
OK,147,27,1037,147,2014-08-02T10:50:00,1,20877989,201961
OK,147,27,1037,147,2014-08-02T10:55:00,0,20878438,201961
OK,147,27,1037,147,2014-08-02T11:00:00,0,20878887,201961
OK,147,27,1037,147,2014-08-02T11:05:00,0,20879336,201961
OK,147,27,1037,147,2014-08-02T11:10:00,0,20879785,201961
OK,147,27,1037,147,2014-08-02T11:15:00,0,20880234,201961
OK,147,27,1037,147,2014-08-02T11:20:00,0,20880683,201961
OK,147,27,1037,147,2014-08-02T11:25:00,0,20881132,201961
OK,147,27,1037,147,2014-08-02T11:30:00,0,20881581,201961
OK,147,27,1037,147,2014-08-02T11:35:00,0,20882030,201961
OK,147,27,1037,147,2014-08-02T11:40:00,0,20882479,201961
OK,147,27,1037,147,2014-08-02T11:45:00,0,20882928,201961
OK,98,41,1037,98,2014-08-02T11:50:00,4,20883377,201961
OK,98,41,1037,98,2014-08-02T11:55:00,4,20883826,201961
OK,106,38,1037,106,2014-08-02T12:00:00,0,20884275,201961
OK,98,41,1037,98,2014-08-02T12:05:00,1,20884724,201961
OK,97,42,1037,97,2014-08-02T12:10:00,2,20885173,201961
OK,97,42,1037,97,2014-08-02T12:15:00,1,20885622,201961
OK,100,41,1037,100,2014-08-02T12:20:00,3,20886071,201961
OK,103,39,1037,103,2014-08-02T12:25:00,2,20886520,201961
OK,100,41,1037,100,2014-08-02T12:30:00,0,20886969,201961
OK,100,41,1037,100,2014-08-02T12:35:00,0,20887418,201961
OK,100,41,1037,100,2014-08-02T12:40:00,0,20887867,201961
OK,100,41,1037,100,2014-08-02T12:45:00,0,20888316,201961
OK,97,42,1037,97,2014-08-02T12:50:00,1,20888765,201961
OK,97,42,1037,97,2014-08-02T12:55:00,1,20889214,201961
OK,97,42,1037,97,2014-08-02T13:00:00,1,20889663,201961
OK,97,42,1037,97,2014-08-02T13:05:00,1,20890112,201961
OK,97,42,1037,97,2014-08-02T13:10:00,0,20890561,201961
OK,83,49,1037,83,2014-08-02T13:15:00,2,20891010,201961
OK,83,49,1037,83,2014-08-02T13:20:00,2,20891459,201961
OK,72,56,1037,72,2014-08-02T13:25:00,1,20891908,201961
OK,72,56,1037,72,2014-08-02T13:30:00,1,20892357,201961
OK,72,56,1037,72,2014-08-02T13:35:00,0,20892806,201961
OK,72,56,1037,72,2014-08-02T13:40:00,0,20893255,201961
OK,72,56,1037,72,2014-08-02T13:45:00,0,20893704,201961
OK,72,56,1037,72,2014-08-02T13:50:00,0,20894153,201961
OK,72,56,1037,72,2014-08-02T13:55:00,0,20894602,201961
OK,72,56,1037,72,2014-08-02T14:00:00,0,20895051,201961
OK,72,56,1037,72,2014-08-02T14:05:00,0,20895500,201961
OK,72,56,1037,72,2014-08-02T14:10:00,0,20895949,201961
OK,104,39,1037,104,2014-08-02T14:15:00,1,20896398,201961
OK,104,39,1037,104,2014-08-02T14:20:00,1,20896847,201961
OK,104,39,1037,104,2014-08-02T14:25:00,0,20897296,201961
OK,104,39,1037,104,2014-08-02T14:30:00,0,20897745,201961
OK,104,39,1037,104,2014-08-02T14:35:00,0,20898194,201961
OK,104,39,1037,104,2014-08-02T14:40:00,0,20898643,201961
OK,110,37,1037,110,2014-08-02T14:45:00,1,20899092,201961
OK,110,37,1037,110,2014-08-02T14:50:00,1,20899541,201961
OK,104,39,1037,104,2014-08-02T14:55:00,0,20899990,201961
OK,104,39,1037,104,2014-08-02T15:00:00,0,20900439,201961
OK,104,39,1037,104,2014-08-02T15:05:00,0,20900888,201961
OK,104,39,1037,104,2014-08-02T15:10:00,0,20901337,201961
OK,104,39,1037,104,2014-08-02T15:15:00,0,20901786,201961
OK,104,39,1037,104,2014-08-02T15:20:00,0,20902235,201961
OK,104,39,1037,104,2014-08-02T15:25:00,0,20902684,201961
OK,104,39,1037,104,2014-08-02T15:30:00,0,20903133,201961
OK,104,39,1037,104,2014-08-02T15:35:00,0,20903582,201961
OK,104,39,1037,104,2014-08-02T15:40:00,0,20904031,201961
OK,104,39,1037,104,2014-08-02T15:45:00,0,20904480,201961
OK,107,38,1037,107,2014-08-02T15:50:00,1,20904929,201961
OK,107,38,1037,107,2014-08-02T15:55:00,1,20905378,201961
OK,107,38,1037,107,2014-08-02T16:00:00,0,20905827,201961
OK,107,38,1037,107,2014-08-02T16:05:00,0,20906276,201961
OK,107,38,1037,107,2014-08-02T16:10:00,0,20906725,201961
OK,107,38,1037,107,2014-08-02T16:15:00,0,20907174,201961
OK,107,38,1037,107,2014-08-02T16:20:00,0,20907623,201961
OK,107,38,1037,107,2014-08-02T16:25:00,0,20908072,201961
OK,107,38,1037,107,2014-08-02T16:30:00,0,20908521,201961
OK,107,38,1037,107,2014-08-02T16:35:00,0,20908970,201961
OK,77,53,1037,77,2014-08-02T16:40:00,1,20909419,201961
OK,77,53,1037,77,2014-08-02T16:45:00,0,20909868,201961
OK,77,53,1037,77,2014-08-02T16:50:00,0,20910317,201961
OK,81,50,1037,81,2014-08-02T16:55:00,1,20910766,201961
OK,81,50,1037,81,2014-08-02T17:00:00,1,20911215,201961
OK,90,45,1037,90,2014-08-02T17:05:00,1,20911664,201961
OK,105,39,1037,105,2014-08-02T17:10:00,1,20912113,201961
OK,105,39,1037,105,2014-08-02T17:15:00,0,20912562,201961
OK,105,39,1037,105,2014-08-02T17:20:00,0,20913011,201961
OK,105,39,1037,105,2014-08-02T17:25:00,0,20913460,201961
OK,105,39,1037,105,2014-08-02T17:30:00,0,20913909,201961
OK,105,39,1037,105,2014-08-02T17:35:00,0,20914358,201961
OK,105,39,1037,105,2014-08-02T17:40:00,0,20914807,201961
OK,64,64,1037,64,2014-08-02T17:45:00,1,20915256,201961
OK,64,64,1037,64,2014-08-02T17:50:00,0,20915705,201961
OK,64,64,1037,64,2014-08-02T17:55:00,0,20916154,201961
OK,64,64,1037,64,2014-08-02T18:00:00,0,20916603,201961
OK,64,64,1037,64,2014-08-02T18:05:00,0,20917052,201961
OK,80,51,1037,80,2014-08-02T18:10:00,2,20917501,201961
OK,80,51,1037,80,2014-08-02T18:15:00,0,20917950,201961
OK,80,51,1037,80,2014-08-02T18:20:00,0,20918399,201961
OK,80,51,1037,80,2014-08-02T18:25:00,0,20918848,201961
OK,80,51,1037,80,2014-08-02T18:30:00,0,20919297,201961
OK,80,51,1037,80,2014-08-02T18:35:00,0,20919746,201961
OK,80,51,1037,80,2014-08-02T18:40:00,0,20920195,201961
OK,80,51,1037,80,2014-08-02T18:45:00,0,20920644,201961
OK,78,52,1037,78,2014-08-02T18:50:00,1,20921093,201961
OK,78,52,1037,78,2014-08-02T18:55:00,0,20921542,201961
OK,78,52,1037,78,2014-08-02T19:00:00,0,20921991,201961
OK,78,52,1037,78,2014-08-02T19:05:00,0,20922440,201961
OK,78,52,1037,78,2014-08-02T19:10:00,0,20922889,201961
OK,76,53,1037,76,2014-08-02T19:15:00,1,20923338,201961
OK,76,53,1037,76,2014-08-02T19:20:00,1,20923787,201961
OK,76,53,1037,76,2014-08-02T19:25:00,0,20924236,201961
OK,76,53,1037,76,2014-08-02T19:30:00,0,20924685,201961
OK,76,53,1037,76,2014-08-02T19:35:00,0,20925134,201961
OK,76,53,1037,76,2014-08-02T19:40:00,0,20925583,201961
OK,76,53,1037,76,2014-08-02T19:45:00,0,20926032,201961
OK,76,53,1037,76,2014-08-02T19:50:00,0,20926481,201961
OK,76,53,1037,76,2014-08-02T19:55:00,0,20926930,201961
OK,76,53,1037,76,2014-08-02T20:00:00,0,20927379,201961
OK,76,53,1037,76,2014-08-02T20:05:00,0,20927828,201961
OK,76,53,1037,76,2014-08-02T20:10:00,0,20928277,201961
OK,76,53,1037,76,2014-08-02T20:15:00,0,20928726,201961
OK,76,53,1037,76,2014-08-02T20:20:00,0,20929175,201961
OK,76,53,1037,76,2014-08-02T20:25:00,0,20929624,201961
OK,76,53,1037,76,2014-08-02T20:30:00,0,20930073,201961
OK,76,53,1037,76,2014-08-02T20:35:00,0,20930522,201961
OK,76,53,1037,76,2014-08-02T20:40:00,0,20930971,201961
OK,93,44,1037,93,2014-08-02T20:45:00,2,20931420,201961
OK,93,44,1037,93,2014-08-02T20:50:00,2,20931869,201961
OK,86,47,1037,86,2014-08-02T20:55:00,1,20932318,201961
OK,86,47,1037,86,2014-08-02T21:00:00,1,20932767,201961
OK,86,47,1037,86,2014-08-02T21:05:00,0,20933216,201961
OK,86,47,1037,86,2014-08-02T21:10:00,0,20933665,201961
OK,86,47,1037,86,2014-08-02T21:15:00,0,20934114,201961
OK,86,47,1037,86,2014-08-02T21:20:00,0,20934563,201961
OK,83,49,1037,83,2014-08-02T21:25:00,1,20935012,201961
OK,83,49,1037,83,2014-08-02T21:30:00,1,20935461,201961
OK,83,49,1037,83,2014-08-02T21:35:00,0,20935910,201961
OK,83,49,1037,83,2014-08-02T21:40:00,0,20936359,201961
OK,83,49,1037,83,2014-08-02T21:45:00,0,20936808,201961
OK,83,49,1037,83,2014-08-02T21:50:00,0,20937257,201961
OK,83,49,1037,83,2014-08-02T21:55:00,0,20937706,201961
OK,83,49,1037,83,2014-08-02T22:00:00,0,20938155,201961
OK,83,49,1037,83,2014-08-02T22:05:00,0,20938604,201961
OK,83,49,1037,83,2014-08-02T22:10:00,0,20939053,201961
OK,83,49,1037,83,2014-08-02T22:15:00,0,20939502,201961
OK,83,49,1037,83,2014-08-02T22:20:00,0,20939951,201961
OK,83,49,1037,83,2014-08-02T22:25:00,0,20940400,201961
OK,103,39,1037,103,2014-08-02T22:30:00,1,20940849,201961
OK,103,39,1037,103,2014-08-02T22:35:00,1,20941298,201961
OK,103,39,1037,103,2014-08-02T22:40:00,0,20941747,201961
OK,86,47,1037,86,2014-08-02T22:45:00,1,20942196,201961
OK,86,47,1037,86,2014-08-02T22:50:00,0,20942645,201961
OK,110,37,1037,110,2014-08-02T22:55:00,1,20943094,201961
OK,110,37,1037,110,2014-08-02T23:00:00,1,20943543,201961
OK,110,37,1037,110,2014-08-02T23:10:00,0,20943992,201961
OK,110,37,1037,110,2014-08-02T23:15:00,0,20944441,201961
OK,91,45,1037,91,2014-08-02T23:20:00,2,20944890,201961
OK,91,45,1037,91,2014-08-02T23:25:00,0,20945339,201961
OK,91,45,1037,91,2014-08-02T23:30:00,0,20945788,201961
OK,91,45,1037,91,2014-08-02T23:35:00,0,20946237,201961
OK,91,45,1037,91,2014-08-02T23:40:00,0,20946686,201961
OK,91,45,1037,91,2014-08-02T23:45:00,0,20947135,201961
OK,91,45,1037,91,2014-08-02T23:50:00,0,20947584,201961
OK,91,45,1037,91,2014-08-02T23:55:00,0,20948033,201961
OK,91,45,1037,91,2014-08-03T00:00:00,0,20948482,201961
OK,91,45,1037,91,2014-08-03T00:05:00,0,20948931,201961
OK,91,45,1037,91,2014-08-03T00:10:00,0,20949379,201961
OK,91,45,1037,91,2014-08-03T00:15:00,0,20949828,201961
OK,91,45,1037,91,2014-08-03T00:20:00,0,20950277,201961
OK,91,45,1037,91,2014-08-03T00:25:00,0,20950726,201961
OK,91,45,1037,91,2014-08-03T00:30:00,0,20951175,201961
OK,91,45,1037,91,2014-08-03T00:35:00,0,20951624,201961
OK,66,62,1037,66,2014-08-03T00:40:00,1,20952073,201961
OK,66,62,1037,66,2014-08-03T00:45:00,1,20952522,201961
OK,66,62,1037,66,2014-08-03T00:50:00,0,20952971,201961
OK,66,62,1037,66,2014-08-03T00:55:00,0,20953420,201961
OK,66,62,1037,66,2014-08-03T01:00:00,0,20953869,201961
OK,66,62,1037,66,2014-08-03T01:05:00,0,20954318,201961
OK,66,62,1037,66,2014-08-03T01:10:00,0,20954767,201961
OK,66,62,1037,66,2014-08-03T01:15:00,0,20955216,201961
OK,66,62,1037,66,2014-08-03T01:20:00,0,20955665,201961
OK,66,62,1037,66,2014-08-03T01:25:00,0,20956114,201961
OK,66,62,1037,66,2014-08-03T01:30:00,0,20956563,201961
OK,66,62,1037,66,2014-08-03T01:35:00,0,20957012,201961
OK,66,62,1037,66,2014-08-03T01:40:00,0,20957461,201961
OK,66,62,1037,66,2014-08-03T01:45:00,0,20957910,201961
OK,66,62,1037,66,2014-08-03T01:50:00,0,20958359,201961
OK,66,62,1037,66,2014-08-03T01:55:00,0,20958808,201961
OK,66,62,1037,66,2014-08-03T02:00:00,0,20959257,201961
OK,66,62,1037,66,2014-08-03T02:05:00,0,20959706,201961
OK,66,62,1037,66,2014-08-03T02:10:00,0,20960155,201961
OK,66,62,1037,66,2014-08-03T02:15:00,0,20960604,201961
OK,66,62,1037,66,2014-08-03T02:20:00,0,20961053,201961
OK,66,62,1037,66,2014-08-03T02:25:00,0,20961502,201961
OK,66,62,1037,66,2014-08-03T02:30:00,0,20961951,201961
OK,66,62,1037,66,2014-08-03T02:35:00,0,20962400,201961
OK,66,62,1037,66,2014-08-03T02:40:00,0,20962849,201961
OK,66,62,1037,66,2014-08-03T02:45:00,0,20963298,201961
OK,66,62,1037,66,2014-08-03T02:50:00,0,20963747,201961
OK,66,62,1037,66,2014-08-03T02:55:00,0,20964196,201961
OK,66,62,1037,66,2014-08-03T03:00:00,0,20964645,201961
OK,66,62,1037,66,2014-08-03T03:05:00,0,20965094,201961
OK,66,62,1037,66,2014-08-03T03:10:00,0,20965543,201961
OK,66,62,1037,66,2014-08-03T03:15:00,0,20965992,201961
OK,66,62,1037,66,2014-08-03T03:20:00,0,20966441,201961
OK,66,62,1037,66,2014-08-03T03:25:00,0,20966890,201961
OK,66,62,1037,66,2014-08-03T03:30:00,0,20967339,201961
OK,66,62,1037,66,2014-08-03T03:35:00,0,20967788,201961
OK,66,62,1037,66,2014-08-03T03:40:00,0,20968237,201961
OK,66,62,1037,66,2014-08-03T03:45:00,0,20968686,201961
OK,66,62,1037,66,2014-08-03T03:50:00,0,20969135,201961
OK,66,62,1037,66,2014-08-03T03:55:00,0,20969584,201961
OK,66,62,1037,66,2014-08-03T05:00:00,0,20975050,201961
OK,66,62,1037,66,2014-08-03T06:00:00,0,20980020,201961
OK,66,62,1037,66,2014-08-03T06:05:00,0,20980469,201961
OK,66,62,1037,66,2014-08-03T06:10:00,0,20980918,201961
OK,93,44,1037,93,2014-08-03T06:15:00,1,20981367,201961
OK,93,44,1037,93,2014-08-03T06:20:00,0,20981816,201961
OK,93,44,1037,93,2014-08-03T06:25:00,0,20982265,201961